N12KH KBHM-KATL

Flight info

Callsign N12KH
Flight time N/A
Altitude 25000
Route GUMMP DRSDN HOBTT3
Aircraft A20N/M-SDE2E3FGHIRWXY/LB1

Departure

Time 2026-04-20 01:13
Airport Birmingham-Shuttlesworth International Airport (KBHM)

Arrival

Time N/A
Airport Hartsfield Jackson Atlanta International Airport (KATL)
Time Latitude Longitude Altitude Speed Heading
2026-04-20 00:59 33.55373 -86.76691 607 ft 0 kts 178°
2026-04-20 01:07 33.55386 -86.76692 607 ft 2 kts 178°
2026-04-20 01:07 33.55401 -86.76693 607 ft 2 kts 178°
2026-04-20 01:07 33.55416 -86.76694 607 ft 2 kts 178°
2026-04-20 01:08 33.55431 -86.76694 607 ft 2 kts 194°
2026-04-20 01:08 33.55445 -86.76687 607 ft 2 kts 213°
2026-04-20 01:08 33.55450 -86.76681 607 ft 1 kts 223°
2026-04-20 01:08 33.55453 -86.76679 607 ft 0 kts 221°
2026-04-20 01:10 33.55458 -86.76814 609 ft 20 kts 273°
2026-04-20 01:10 33.55456 -86.76981 608 ft 20 kts 256°
2026-04-20 01:11 33.55424 -86.77062 607 ft 0 kts 258°
2026-04-20 01:11 33.55424 -86.77068 607 ft 4 kts 267°
2026-04-20 01:11 33.55428 -86.77100 607 ft 0 kts 285°
2026-04-20 01:12 33.55440 -86.77113 607 ft 4 kts 327°
2026-04-20 01:12 33.55502 -86.77116 610 ft 14 kts 44°
2026-04-20 01:12 33.55706 -86.76765 614 ft 91 kts 56°
2026-04-20 01:13 33.56197 -86.75909 633 ft 155 kts 55°
2026-04-20 01:13 33.56831 -86.74817 1197 ft 165 kts 51°
2026-04-20 01:13 33.57505 -86.73692 1950 ft 173 kts 57°
2026-04-20 01:13 33.57626 -86.72234 2733 ft 188 kts 98°
2026-04-20 01:14 33.57174 -86.70774 3486 ft 195 kts 105°
2026-04-20 01:14 33.56643 -86.69191 3910 ft 219 kts 105°
2026-04-20 01:14 33.56030 -86.67394 4154 ft 250 kts 112°
2026-04-20 01:14 33.54811 -86.65791 4702 ft 279 kts 148°
2026-04-20 01:15 33.52907 -86.65190 5451 ft 293 kts 179°
2026-04-20 01:15 33.50863 -86.65279 6400 ft 298 kts 184°
2026-04-20 01:15 33.48785 -86.65394 7349 ft 302 kts 183°
2026-04-20 01:15 33.46690 -86.65404 8333 ft 305 kts 181°
2026-04-20 01:16 33.44543 -86.65318 9184 ft 308 kts 180°
2026-04-20 01:16 33.42397 -86.65174 9727 ft 310 kts 179°
2026-04-20 01:16 33.40235 -86.64994 10210 ft 316 kts 179°
2026-04-20 01:16 33.37979 -86.64793 10788 ft 334 kts 179°
2026-04-20 01:17 33.35610 -86.64574 11243 ft 352 kts 178°
2026-04-20 01:17 33.33118 -86.64336 11708 ft 369 kts 178°
2026-04-20 01:17 33.30516 -86.64082 12447 ft 376 kts 178°
2026-04-20 01:17 33.27906 -86.63826 13316 ft 379 kts 179°
2026-04-20 01:18 33.25269 -86.63568 14141 ft 383 kts 179°
2026-04-20 01:18 33.22625 -86.63309 14895 ft 387 kts 179°
2026-04-20 01:18 33.19952 -86.63049 15676 ft 390 kts 180°
2026-04-20 01:18 33.17215 -86.62783 16447 ft 393 kts 180°
2026-04-20 01:19 33.14502 -86.62516 17163 ft 396 kts 179°
2026-04-20 01:19 33.11817 -86.61716 17803 ft 411 kts 159°
2026-04-20 01:19 33.09453 -86.59743 18474 ft 424 kts 136°
2026-04-20 01:19 33.07795 -86.56812 19094 ft 434 kts 113°
2026-04-20 01:20 33.07122 -86.53307 19653 ft 438 kts 92°
2026-04-20 01:20 33.07063 -86.49642 20239 ft 443 kts 88°
2026-04-20 01:20 33.07062 -86.45999 20777 ft 449 kts 88°
2026-04-20 01:20 33.07040 -86.42256 21345 ft 454 kts 89°
2026-04-20 01:21 33.06983 -86.38458 21890 ft 460 kts 89°
2026-04-20 01:21 33.06947 -86.34663 22397 ft 465 kts 86°
2026-04-20 01:21 33.07205 -86.30801 22746 ft 462 kts 82°
2026-04-20 01:21 33.07580 -86.27053 22536 ft 460 kts 80°
2026-04-20 01:22 33.07974 -86.23296 21963 ft 458 kts 81°
2026-04-20 01:22 33.08347 -86.19547 21376 ft 455 kts 81°
2026-04-20 01:22 33.08698 -86.15824 20860 ft 450 kts 81°
2026-04-20 01:22 33.09029 -86.12122 20365 ft 445 kts 82°
2026-04-20 01:23 33.09343 -86.08529 19882 ft 440 kts 82°
2026-04-20 01:23 33.09654 -86.04892 19380 ft 434 kts 82°
2026-04-20 01:23 33.09951 -86.01376 18894 ft 430 kts 82°
2026-04-20 01:23 33.10246 -85.97856 18407 ft 425 kts 82°
2026-04-20 01:24 33.10540 -85.94355 17939 ft 419 kts 82°
2026-04-20 01:24 33.10827 -85.90942 17470 ft 414 kts 82°
2026-04-20 01:24 33.11112 -85.87558 16993 ft 410 kts 82°
2026-04-20 01:24 33.11393 -85.84214 16495 ft 406 kts 82°
2026-04-20 01:25 33.11673 -85.80874 15991 ft 402 kts 82°
2026-04-20 01:25 33.11946 -85.77570 15489 ft 399 kts 82°
2026-04-20 01:25 33.12215 -85.74315 15111 ft 393 kts 82°
2026-04-20 01:25 33.12478 -85.71111 15032 ft 393 kts 82°
2026-04-20 01:26 33.12747 -85.67850 15033 ft 394 kts 82°
2026-04-20 01:26 33.13011 -85.64625 15034 ft 394 kts 82°
2026-04-20 01:26 33.13276 -85.61378 15032 ft 395 kts 82°
2026-04-20 01:26 33.13543 -85.58098 15034 ft 394 kts 82°
2026-04-20 01:27 33.13806 -85.54842 15031 ft 394 kts 82°
2026-04-20 01:27 33.14066 -85.51611 15031 ft 394 kts 82°
2026-04-20 01:27 33.14326 -85.48369 15031 ft 394 kts 82°
2026-04-20 01:27 33.14585 -85.45134 15029 ft 394 kts 82°
2026-04-20 01:28 33.14844 -85.41887 15026 ft 395 kts 82°
2026-04-20 01:28 33.15105 -85.38609 15024 ft 395 kts 82°
2026-04-20 01:28 33.15362 -85.35358 15016 ft 395 kts 82°
2026-04-20 01:28 33.15619 -85.32099 15018 ft 394 kts 82°
2026-04-20 01:29 33.15877 -85.28827 15013 ft 389 kts 82°
2026-04-20 01:29 33.16120 -85.25703 15010 ft 371 kts 82°
2026-04-20 01:29 33.16350 -85.22728 15007 ft 353 kts 82°
2026-04-20 01:29 33.16571 -85.19874 15002 ft 336 kts 82°
2026-04-20 01:30 33.16780 -85.17181 15003 ft 321 kts 82°
2026-04-20 01:30 33.16979 -85.14610 15002 ft 305 kts 82°
2026-04-20 01:30 33.17171 -85.12123 14999 ft 291 kts 81°
2026-04-20 01:30 33.17356 -85.09748 15016 ft 297 kts 81°
2026-04-20 01:31 33.17562 -85.07168 15028 ft 325 kts 82°
2026-04-20 01:31 33.17776 -85.04439 15025 ft 334 kts 82°
2026-04-20 01:31 33.17994 -85.01675 15024 ft 335 kts 79°
2026-04-20 01:31 33.18684 -84.99069 15004 ft 327 kts 54°
2026-04-20 01:32 33.20099 -84.96986 15020 ft 320 kts 40°
2026-04-20 01:32 33.21679 -84.95134 15024 ft 320 kts 39°
2026-04-20 01:32 33.23266 -84.93253 15028 ft 320 kts 38°
2026-04-20 01:32 33.25059 -84.91788 15009 ft 307 kts 13°
2026-04-20 01:33 33.27103 -84.91552 15024 ft 293 kts 345°
2026-04-20 01:33 33.28958 -84.92428 15024 ft 284 kts 322°
2026-04-20 01:33 33.30302 -84.94096 15016 ft 280 kts 300°
2026-04-20 01:33 33.30948 -84.96265 15018 ft 282 kts 278°
2026-04-20 01:34 33.30773 -84.98631 15021 ft 288 kts 255°
2026-04-20 01:34 33.29754 -85.00693 15021 ft 300 kts 231°
2026-04-20 01:34 33.27982 -85.02080 15022 ft 314 kts 204°
2026-04-20 01:34 33.25769 -85.02343 15020 ft 328 kts 174°
2026-04-20 01:35 33.23592 -85.01430 15033 ft 335 kts 159°
2026-04-20 01:35 33.21400 -85.00532 15011 ft 327 kts 179°
2026-04-20 01:35 33.19236 -85.00841 15020 ft 312 kts 208°
2026-04-20 01:35 33.17538 -85.02346 15024 ft 297 kts 239°
2026-04-20 01:36 33.16747 -85.04523 15028 ft 287 kts 264°
2026-04-20 01:36 33.16833 -85.06879 15028 ft 283 kts 287°
2026-04-20 01:36 33.17712 -85.08938 15026 ft 284 kts 309°
2026-04-20 01:36 33.19252 -85.10405 15027 ft 288 kts 331°
2026-04-20 01:37 33.21224 -85.10982 15024 ft 297 kts 355°
2026-04-20 01:37 33.23274 -85.10459 15018 ft 311 kts 21°
2026-04-20 01:37 33.25004 -85.08836 15027 ft 322 kts 42°
2026-04-20 01:37 33.26498 -85.06829 15025 ft 323 kts 43°
2026-04-20 01:38 33.27981 -85.04835 15023 ft 322 kts 43°
2026-04-20 01:38 33.29474 -85.02843 15024 ft 322 kts 43°
2026-04-20 01:38 33.30889 -85.00746 15013 ft 328 kts 56°
2026-04-20 01:38 33.31525 -84.98109 15010 ft 338 kts 87°
2026-04-20 01:39 33.31062 -84.95396 15009 ft 342 kts 116°
2026-04-20 01:39 33.29570 -84.93188 15011 ft 338 kts 147°
2026-04-20 01:39 33.27476 -84.92107 15014 ft 328 kts 176°
2026-04-20 01:39 33.25272 -84.92333 15014 ft 314 kts 206°
2026-04-20 01:40 33.23508 -84.93733 15021 ft 300 kts 232°
2026-04-20 01:40 33.22240 -84.95679 15021 ft 297 kts 239°
2026-04-20 01:40 33.20980 -84.97669 15020 ft 298 kts 237°
2026-04-20 01:40 33.19677 -84.99571 15022 ft 298 kts 235°
2026-04-20 01:41 33.18315 -85.01451 15024 ft 299 kts 234°
2026-04-20 01:41 33.17025 -85.03376 15012 ft 294 kts 246°
2026-04-20 01:41 33.16550 -85.05648 15012 ft 283 kts 275°
2026-04-20 01:41 33.17038 -85.07904 15020 ft 281 kts 297°
2026-04-20 01:42 33.18250 -85.09733 15019 ft 284 kts 320°
2026-04-20 01:42 33.20033 -85.10738 15018 ft 293 kts 345°
2026-04-20 01:42 33.22102 -85.10635 15018 ft 306 kts 12°
2026-04-20 01:42 33.24056 -85.09507 15027 ft 312 kts 23°
2026-04-20 01:43 33.25946 -85.08273 15023 ft 311 kts 23°
2026-04-20 01:43 33.27871 -85.07035 15021 ft 311 kts 22°
2026-04-20 01:43 33.29729 -85.05739 15016 ft 316 kts 33°
2026-04-20 01:43 33.31103 -85.03652 15013 ft 330 kts 63°
2026-04-20 01:44 33.31496 -85.00918 15019 ft 339 kts 94°
2026-04-20 01:44 33.30778 -84.98258 15020 ft 342 kts 123°
2026-04-20 01:44 33.29142 -84.96215 15029 ft 337 kts 150°
2026-04-20 01:44 33.27012 -84.95179 15023 ft 328 kts 175°
2026-04-20 01:45 33.24787 -84.95260 15021 ft 316 kts 200°
2026-04-20 01:45 33.22853 -84.96336 15032 ft 306 kts 220°
2026-04-20 01:45 33.21116 -84.97825 15033 ft 303 kts 226°
2026-04-20 01:45 33.19933 -84.99788 15024 ft 289 kts 256°
2026-04-20 01:46 33.19720 -85.02106 15035 ft 283 kts 278°
2026-04-20 01:46 33.20163 -85.04382 15026 ft 282 kts 292°
2026-04-20 01:46 33.21108 -85.06438 15019 ft 282 kts 306°
2026-04-20 01:46 33.22477 -85.08090 15015 ft 284 kts 321°
2026-04-20 01:47 33.24237 -85.09242 15017 ft 288 kts 336°
2026-04-20 01:47 33.26217 -85.09733 15017 ft 295 kts 353°
2026-04-20 01:47 33.28275 -85.09489 15021 ft 304 kts 10°
2026-04-20 01:47 33.30243 -85.08456 15024 ft 314 kts 28°
2026-04-20 01:48 33.31871 -85.06679 15023 ft 324 kts 48°
2026-04-20 01:48 33.32971 -85.04276 14831 ft 332 kts 66°
2026-04-20 01:48 33.33671 -85.01692 14570 ft 331 kts 69°
2026-04-20 01:48 33.34327 -84.99044 14204 ft 329 kts 70°
2026-04-20 01:49 33.34977 -84.96451 13872 ft 325 kts 69°
2026-04-20 01:49 33.35635 -84.93888 13514 ft 322 kts 69°
2026-04-20 01:49 33.36300 -84.91351 13153 ft 319 kts 68°
2026-04-20 01:49 33.36966 -84.88836 12778 ft 317 kts 68°
2026-04-20 01:50 33.37633 -84.86323 12406 ft 315 kts 68°
2026-04-20 01:50 33.38344 -84.83890 12130 ft 307 kts 58°
2026-04-20 01:50 33.39678 -84.82004 12060 ft 294 kts 30°
2026-04-20 01:50 33.41485 -84.80744 12064 ft 311 kts 22°
2026-04-20 01:51 33.43503 -84.79496 12040 ft 343 kts 23°
2026-04-20 01:51 33.45652 -84.78103 12030 ft 356 kts 25°
2026-04-20 01:51 33.47815 -84.76621 12037 ft 359 kts 26°
2026-04-20 01:51 33.49956 -84.75108 12037 ft 360 kts 26°
2026-04-20 01:52 33.52107 -84.73565 12041 ft 360 kts 26°
2026-04-20 01:52 33.54265 -84.72002 12017 ft 360 kts 26°
2026-04-20 01:52 33.56390 -84.70458 12006 ft 359 kts 27°
2026-04-20 01:52 33.58515 -84.68910 12022 ft 360 kts 27°
2026-04-20 01:53 33.60677 -84.67333 12023 ft 359 kts 27°
2026-04-20 01:53 33.62791 -84.65790 12025 ft 359 kts 27°
2026-04-20 01:53 33.64943 -84.64218 12024 ft 359 kts 26°
2026-04-20 01:53 33.67075 -84.62659 12024 ft 360 kts 27°
2026-04-20 01:54 33.69213 -84.61097 12021 ft 356 kts 27°
2026-04-20 01:54 33.71165 -84.59401 12009 ft 344 kts 40°
2026-04-20 01:54 33.72563 -84.57124 12015 ft 334 kts 58°
2026-04-20 01:54 33.73278 -84.54537 12012 ft 324 kts 77°
2026-04-20 01:55 33.73402 -84.51887 12019 ft 310 kts 86°
2026-04-20 01:55 33.73366 -84.49367 12012 ft 295 kts 88°
2026-04-20 01:55 33.73322 -84.46979 12007 ft 280 kts 87°
2026-04-20 01:55 33.73296 -84.44673 11950 ft 272 kts 86°
2026-04-20 01:56 33.73285 -84.42426 11673 ft 270 kts 85°
2026-04-20 01:56 33.73285 -84.40174 11287 ft 268 kts 85°
2026-04-20 01:56 33.73286 -84.37969 10805 ft 266 kts 85°
2026-04-20 01:56 33.73288 -84.35764 10292 ft 264 kts 85°
2026-04-20 01:57 33.73287 -84.33558 9773 ft 262 kts 86°
2026-04-20 01:57 33.73286 -84.31400 9270 ft 259 kts 85°
2026-04-20 01:57 33.73285 -84.29254 8774 ft 255 kts 85°
2026-04-20 01:57 33.73287 -84.27155 8287 ft 251 kts 85°
2026-04-20 01:58 33.73290 -84.25104 7807 ft 247 kts 85°
2026-04-20 01:58 33.73293 -84.23065 7323 ft 243 kts 85°
2026-04-20 01:58 33.73294 -84.21049 6843 ft 238 kts 84°
2026-04-20 01:58 33.73294 -84.19099 6369 ft 235 kts 84°
2026-04-20 01:59 33.73117 -84.17142 5845 ft 240 kts 106°
2026-04-20 01:59 33.72167 -84.15494 5330 ft 248 kts 139°
2026-04-20 01:59 33.70618 -84.14614 4827 ft 249 kts 166°
2026-04-20 01:59 33.68910 -84.14288 4333 ft 248 kts 177°
2026-04-20 02:00 33.67220 -84.14624 3845 ft 247 kts 210°
2026-04-20 02:00 33.65946 -84.15898 3541 ft 236 kts 237°
2026-04-20 02:00 33.65144 -84.17554 3226 ft 226 kts 260°
2026-04-20 02:00 33.64891 -84.19356 3030 ft 210 kts 275°
2026-04-20 02:01 33.64895 -84.21006 3019 ft 188 kts 279°
2026-04-20 02:01 33.64944 -84.22563 3077 ft 187 kts 280°
2026-04-20 02:01 33.64975 -84.24107 3041 ft 187 kts 278°
2026-04-20 02:01 33.64983 -84.25676 3029 ft 187 kts 278°
2026-04-20 02:02 33.64977 -84.27227 3022 ft 187 kts 278°
2026-04-20 02:02 33.64970 -84.28780 2979 ft 187 kts 277°
2026-04-20 02:02 33.64964 -84.30347 2766 ft 186 kts 277°
2026-04-20 02:02 33.64958 -84.31835 2511 ft 176 kts 276°
2026-04-20 02:03 33.64955 -84.33264 2274 ft 165 kts 275°
2026-04-20 02:03 33.64954 -84.34602 2066 ft 154 kts 275°
2026-04-20 02:03 33.64953 -84.35813 1884 ft 139 kts 275°
2026-04-20 02:03 33.64953 -84.36926 1695 ft 130 kts 274°
2026-04-20 02:04 33.64954 -84.38013 1529 ft 130 kts 273°
2026-04-20 02:04 33.64954 -84.39095 1358 ft 130 kts 273°
2026-04-20 02:04 33.64953 -84.40177 1188 ft 130 kts 272°
2026-04-20 02:04 33.64952 -84.41273 1021 ft 129 kts 272°
2026-04-20 02:05 33.64954 -84.42216 1015 ft 92 kts 270°
2026-04-20 02:05 33.64954 -84.42798 1019 ft 58 kts 271°